Faribault, MN

2:06 PM CDT on July 21, 2017 (GMT -0500)
Faribault Municipal

Weather History for KFBL - January, 2013

Change the Weather History Date:

Wednesday, January 9, 2013

  Actual Average Record
Temperature  
Mean Temperature 28 °F -  
Max Temperature 35 °F 18 °F 51 °F (2002)
Min Temperature 21 °F 0 °F -40 °F (1977)
Degree Days  
Heating Degree Days 37    
Moisture  
Dew Point 24 °F    
Average Humidity 79    
Maximum Humidity 100    
Minimum Humidity 64    
Precipitation  
Precipitation 0.00 in - - ()
Sea Level Pressure  
Sea Level Pressure 30.20 in    
Wind  
Wind Speed 10 mph (SW)    
Max Wind Speed 21 mph    
Max Gust Speed 29 mph    
Visibility 10 miles    
Events      
Averages and records for this station are not official NWS values.
T = Trace of Precipitation, MM = Missing Value Source: NWS Daily Summary

Daily Weather History Graph

Daily Weather History Graph

Search for Another Location

Airport or City:

Trip Planner

Search our weather history database for the weather conditions in past years. The results will help you decide how hot, cold, wet, or windy it might be!

Date:

Astronomy

Jan. 09, 2013 Rise Set
Actual Time 7:48 AM CST 4:53 PM CST
Civil Twilight 7:15 AM CST 5:25 PM CST
Nautical Twilight 6:39 AM CST 6:02 PM CST
Astronomical Twilight 6:04 AM CST 6:37 PM CST
Moon 5:28 AM CST (1/9) 2:55 PM CST (1/9)
Length of Visible Light 10h 10m
Length of Day
9h 05m
Waning Crescent, 6% of the Moon is Illuminated
Jan 9
Waning Crescent
Jan 11
New
Jan 18
First Quarter
Jan 26
Full
Feb 3
Last Quarter

Hourly Weather History & Observations

Time (CST) Temp. Windchill Dew Point Humidity Pressure Visibility Wind Dir Wind Speed Gust Speed Precip Events Conditions
12:14 AM 30.2 °F 22.6 °F 26.6 °F 86% 29.94 in 10.0 mi SW 8.1 mph - N/A   Mostly Cloudy
12:34 AM 30.2 °F 24.3 °F 26.6 °F 86% 29.94 in 10.0 mi SSW 5.8 mph - N/A   Overcast
12:54 AM 28.4 °F 19.7 °F 26.6 °F 93% 29.96 in 10.0 mi SW 9.2 mph - N/A   Overcast
1:14 AM 30.2 °F 21.9 °F 26.6 °F 86% 29.96 in 10.0 mi SW 9.2 mph - N/A   Overcast
1:34 AM 30.2 °F 21.9 °F 26.6 °F 86% 29.97 in 10.0 mi WSW 9.2 mph - N/A   Overcast
2:14 AM 32.0 °F 25.6 °F 28.4 °F 87% 29.98 in 10.0 mi SW 6.9 mph - N/A   Scattered Clouds
2:34 AM 30.2 °F 23.4 °F 26.6 °F 86% 29.98 in 10.0 mi SSW 6.9 mph - N/A   Clear
2:54 AM 28.4 °F 21.2 °F 26.6 °F 93% 29.98 in 10.0 mi SSW 6.9 mph - N/A   Clear
3:14 AM 28.4 °F 22.2 °F 26.6 °F 93% 29.99 in 10.0 mi SSW 5.8 mph - N/A   Clear
3:34 AM 26.6 °F 20.0 °F 24.8 °F 93% 30.00 in 10.0 mi SSW 5.8 mph - N/A   Clear
3:54 AM 28.4 °F 19.7 °F 26.6 °F 93% 29.99 in 10.0 mi SW 9.2 mph - N/A   Clear
4:13 AM 28.4 °F 19.1 °F 26.6 °F 93% 30.01 in 10.0 mi SW 10.4 mph - N/A   Clear
4:34 AM 30.2 °F 20.2 °F 26.6 °F 86% 30.01 in 10.0 mi WSW 12.7 mph 18.4 mph N/A   Clear
4:54 AM 32.0 °F 21.6 °F 26.6 °F 80% 30.02 in 10.0 mi WSW 15.0 mph 21.9 mph N/A   Clear
5:14 AM 32.0 °F 20.5 °F 26.6 °F 80% 30.03 in 10.0 mi West 18.4 mph 23.0 mph N/A   Clear
5:34 AM 33.8 °F 22.2 °F 26.6 °F 75% 30.04 in 10.0 mi WSW 20.7 mph 27.6 mph N/A   Clear
6:14 AM 33.8 °F 23.2 °F 26.6 °F 75% 30.06 in 10.0 mi West 17.3 mph 28.8 mph N/A   Clear
6:54 AM 30.2 °F 18.9 °F 24.8 °F 80% 30.08 in 10.0 mi West 16.1 mph 23.0 mph N/A   Clear
7:14 AM 30.2 °F 18.1 °F 24.8 °F 80% 30.09 in 10.0 mi West 18.4 mph 23.0 mph N/A   Clear
7:34 AM 30.2 °F 17.8 °F 23.0 °F 75% 30.11 in 10.0 mi West 19.6 mph 27.6 mph N/A   Clear
7:54 AM 30.2 °F 18.5 °F 23.0 °F 75% 30.11 in 10.0 mi West 17.3 mph 24.2 mph N/A   Clear
8:34 AM 30.2 °F 18.9 °F 21.2 °F 69% 30.14 in 10.0 mi West 16.1 mph 21.9 mph N/A   Clear
8:54 AM 30.2 °F 18.9 °F 21.2 °F 69% 30.15 in 10.0 mi West 16.1 mph 24.2 mph N/A   Clear
9:11 AM 30.2 °F 18.9 °F 21.2 °F 69% 30.16 in 10.0 mi West 16.1 mph 21.9 mph N/A   Clear
9:25 AM 30.2 °F 20.2 °F 21.2 °F 69% 30.17 in 10.0 mi West 12.7 mph 26.5 mph N/A   Clear
9:41 AM 30.2 °F 20.2 °F 21.2 °F 69% 30.18 in 10.0 mi West 12.7 mph 21.9 mph N/A   Clear
10:01 AM 30.2 °F 18.9 °F 21.2 °F 69% 30.18 in 10.0 mi West 16.1 mph 21.9 mph N/A   Clear
10:27 AM 30.2 °F 21.9 °F 21.2 °F 69% 30.20 in 10.0 mi West 9.2 mph - N/A   Clear
10:34 AM 32.0 °F 24.2 °F 21.2 °F 64% 30.21 in 10.0 mi West 9.2 mph 16.1 mph N/A   Clear
10:54 AM 32.0 °F 23.0 °F 21.2 °F 64% 30.22 in 10.0 mi West 11.5 mph 19.6 mph N/A   Clear
11:14 AM 32.0 °F 22.1 °F 21.2 °F 64% 30.22 in 10.0 mi West 13.8 mph 19.6 mph N/A   Clear
11:34 AM 32.0 °F 21.2 °F 21.2 °F 64% 30.24 in 10.0 mi West 16.1 mph 19.6 mph N/A   Clear
11:54 AM 30.2 °F 18.5 °F 23.0 °F 75% 30.25 in 10.0 mi WSW 17.3 mph - N/A   Clear
12:14 PM 30.2 °F 18.9 °F 21.2 °F 69% 30.26 in 10.0 mi West 16.1 mph 25.3 mph N/A   Clear
12:34 PM 32.0 °F 22.1 °F 23.0 °F 69% 30.28 in 10.0 mi WSW 13.8 mph 17.3 mph N/A   Clear
12:54 PM 33.8 °F 24.3 °F 23.0 °F 65% 30.29 in 10.0 mi WSW 13.8 mph 20.7 mph N/A   Clear
1:14 PM 33.8 °F 23.5 °F 24.8 °F 70% 30.30 in 10.0 mi WSW 16.1 mph 19.6 mph N/A   Clear
1:34 PM 33.8 °F 24.3 °F 23.0 °F 65% 30.31 in 10.0 mi WSW 13.8 mph 21.9 mph N/A   Clear
1:54 PM 33.8 °F 25.8 °F 24.8 °F 70% 30.32 in 10.0 mi WSW 10.4 mph - N/A   Clear
2:14 PM 33.8 °F 24.3 °F 24.8 °F 70% 30.34 in 10.0 mi WSW 13.8 mph - N/A   Clear
2:34 PM 33.8 °F 25.8 °F 24.8 °F 70% 30.34 in 10.0 mi WSW 10.4 mph - N/A   Clear
2:54 PM 35.6 °F 29.2 °F 24.8 °F 65% 30.35 in 10.0 mi SW 8.1 mph - N/A   Clear
3:14 PM 35.6 °F 29.2 °F 24.8 °F 65% 30.36 in 10.0 mi SSW 8.1 mph - N/A   Clear
3:34 PM 35.6 °F 28.6 °F 24.8 °F 65% 30.36 in 10.0 mi SW 9.2 mph - N/A   Clear
3:54 PM 33.8 °F 27.0 °F 24.8 °F 70% 30.36 in 10.0 mi SW 8.1 mph - N/A   Clear
4:14 PM 33.8 °F 29.6 °F 24.8 °F 70% 30.35 in 10.0 mi SW 4.6 mph - N/A   Clear
4:34 PM 33.8 °F - 24.8 °F 70% 30.34 in 10.0 mi Calm Calm - N/A   Clear
4:54 PM 30.2 °F - 24.8 °F 80% 30.34 in 10.0 mi Calm Calm - N/A   Clear
5:14 PM 30.2 °F 26.7 °F 24.8 °F 80% 30.34 in 10.0 mi South 3.5 mph - N/A   Clear
5:34 PM 28.4 °F - 23.0 °F 80% 30.34 in 10.0 mi Calm Calm - N/A   Clear
5:54 PM 24.8 °F - 21.2 °F 86% 30.34 in 10.0 mi Calm Calm - N/A   Clear
6:14 PM 24.8 °F - 21.2 °F 86% 30.33 in 10.0 mi Calm Calm - N/A   Clear
6:34 PM 23.0 °F - 21.2 °F 93% 30.33 in 10.0 mi Calm Calm - N/A   Clear
6:48 PM 21.2 °F 14.9 °F 21.2 °F 100% 30.34 in 10.0 mi SSE 4.6 mph - N/A   Clear
7:14 PM 26.6 °F 22.6 °F 24.8 °F 93% 30.33 in 10.0 mi SSE 3.5 mph - N/A   Clear
7:34 PM 26.6 °F 20.0 °F 23.0 °F 86% 30.33 in 10.0 mi SSE 5.8 mph - N/A   Clear
7:54 PM 26.6 °F 21.2 °F 24.8 °F 93% 30.32 in 10.0 mi SSE 4.6 mph - N/A   Clear
8:34 PM 26.6 °F 20.0 °F 23.0 °F 86% 30.32 in 10.0 mi South 5.8 mph - N/A   Clear
8:54 PM 26.6 °F 18.2 °F 24.8 °F 93% 30.33 in 10.0 mi South 8.1 mph - N/A   Clear
9:14 PM 26.6 °F 20.0 °F 23.0 °F 86% 30.31 in 10.0 mi South 5.8 mph - N/A   Clear
9:34 PM 26.6 °F 19.1 °F 24.8 °F 93% 30.30 in 10.0 mi South 6.9 mph - N/A   Clear
9:54 PM 26.6 °F 19.1 °F 24.8 °F 93% 30.29 in 10.0 mi South 6.9 mph - N/A   Clear
10:14 PM 26.6 °F 19.1 °F 24.8 °F 93% 30.29 in 10.0 mi South 6.9 mph - N/A   Clear
10:34 PM 28.4 °F 21.2 °F 24.8 °F 86% 30.30 in 10.0 mi South 6.9 mph - N/A   Clear
10:54 PM 28.4 °F 17.5 °F 24.8 °F 86% 30.30 in 10.0 mi South 13.8 mph - N/A   Clear
11:14 PM 28.4 °F 18.0 °F 24.8 °F 86% 30.31 in 10.0 mi South 12.7 mph - N/A   Clear
11:34 PM 28.4 °F 18.5 °F 24.8 °F 86% 30.31 in 10.0 mi South 11.5 mph 17.3 mph N/A   Clear
11:54 PM 28.4 °F 18.5 °F 24.8 °F 86% 30.30 in 10.0 mi South 11.5 mph - N/A   Clear